Rbgn^[z[y[W
メイン
   新天体発見情報
     Comet C/2022 E2 (ATLAS)
投稿するにはまず登録を

フラット表示 前のトピック | 次のトピック
投稿者 スレッド
佐藤裕久
投稿日時: 2022-3-19 15:31
モデレータ
登録日: 2005-6-12
居住地: 日本
投稿: 2442
オンライン
Comet C/2022 E2 (ATLAS)

3月7日UT、チリ Rio Hurtadoにある小惑星地球衝突最終警報システム Asteroid Terrestrial-
impact Last Alert System (ATLAS)調査プログラムのコースに0.5-m f/2 Schmidt反射望遠鏡
で得たCCD画像から小惑星状天体を発見した。
小惑星センターのPCCP webpageに公表後、池村俊彦氏(愛知県名古屋市, 3月8.7日, 60-秒露出
14枚のスタック, 0.38-m f/4.2 反射望遠鏡, 新城観測所, 測定・報告は佐藤裕久:強く集光し
た約7"のコマが見えるが、尾はない。全光度は18.0等)、E. Guido (Castellammare di Stabia,
イタリア, 3月10.32-10.35日, 120-秒露出25枚のスタック, "Telescope Live" 0.61-m f/6.5
アストログラフ, El Sauce, チリ, 観測者はE. Guido他大勢, 遠隔操作: 約7"のコンパクトな
コマが見える)や佐藤英貴氏(東京都文京区, 3月10.4日, 120-秒露出6枚のスタック, 0.51-m 
f/6.8 アストログラフ, Mayhill近郊, ニューメキシコ州,  米国,遠隔操作: 強く集光した6"
のコマが見えるが尾はない。4".9の円形範囲で測定した光度は18.6等であった)らCCD位置観測
者によって彗星状と観測された。

彗星機能の報告は次のとおり、

OC   Date        Reporter           Coma    Tail    PA          Exposures
Q11  2022-03-09  H. Sato            7"                         14x60s
X02  2022-03-10  E. Guido           7"                         25x120s
W88  2022-03-10  N. Paul            5".1
Q62  2022-03-10  H. Sato            6"                          6x120s

発見位置は次のとおり、

     2022 UT             R.A. (2000) Decl.       Mag.
     Feb. 23.24494   10 34 26.48   -32 31 49.8   18.9
          23.24993   10 34 26.29   -32 31 48.0   18.7
          23.26160   10 34 25.88   -32 31 46.0   18.5
          23.26430   10 34 25.77   -32 31 45.2   18.4
     Mar.  7.11970   10 26 12.49   -31 40 11.6   18.7
           7.12311   10 26 12.32   -31 40 11.5   19.0
           7.12829   10 26 12.13   -31 40 09.1   19.1
           7.16571   10 26 10.55   -31 39 57.4   18.5

MPCの楕円軌道要素、位置推算表は次のとおり、

Orbital elements:
    C/2022 E2 (ATLAS)                                                           
Epoch 2024 Sept. 7.0 TT = JDT 2460560.5                                         
T 2024 Sept. 16.95426 TT                                Rudenko                 
q   3.6690467            (2000.0)            P               Q                  
z  +0.0010681      Peri.   41.83959     -0.03259931     +0.83139795             
 +/-0.0011038      Node   125.37102     +0.63652693     -0.41063285             
e   0.9960810      Incl.  137.13390     +0.77056522     +0.37437696             
From 64 observations 2022 Feb. 23-Mar. 14, mean residual 0".3.                  
                                                                                
    C/2022 E2 (ATLAS)                                                           
Epoch 2022 Jan. 21.0 TT = JDT 2459600.5                                         
T 2024 Sept. 16.55926 TT                                Rudenko                 
q   3.6684964            (2000.0)            P               Q                  
z  +0.0009412      Peri.   41.78518     -0.03272198     +0.83136945             
 +/-0.0011038      Node   125.33623     +0.63708300     -0.41032581             
e   0.9965473      Incl.  137.15340     +0.77010034     +0.37477668             
From 64 observations 2022 Feb. 23-Mar. 14, mean residual 0".3.                  
                                                                                
Ephemeris:
Date    TT    R. A. (2000) Decl.     Delta      r    Elong.  Phase   m1
2022 02 13    10 41 22.7 -33 03 11   7.7540  8.4407   131.5     5.0  18.7
...
2022 02 28    10 31 08.8 -32 13 05   7.5683  8.3465   139.5     4.4  18.6
...
2022 03 08    10 25 36.1 -31 35 45   7.4950  8.2961   141.6     4.3  18.6
...
2022 03 14    10 21 31.1 -31 03 18   7.4526  8.2584   142.0     4.3  18.5
2022 03 15    10 20 51.0 -30 57 33   7.4465  8.2521   141.9     4.3  18.5
2022 03 16    10 20 11.0 -30 51 42   7.4408  8.2458   141.9     4.3  18.5
...
2022 03 22    10 16 17.2 -30 14 47   7.4126  8.2080   140.7     4.4  18.5
...
2022 03 30    10 11 24.2 -29 21 13   7.3914  8.1576   137.7     4.7  18.5
...
2022 04 14    10 03 33.0 -27 31 28   7.3993  8.0631   128.6     5.6  18.4

(MPEC 2022-E227 、CBET 5109)

フラット表示 前のトピック | 次のトピック

題名 投稿者 日時
 » Comet C/2022 E2 (ATLAS) 佐藤裕久 2022-3-19 15:31

投稿するにはまず登録を
 
© 1999 Tsutomu Seki.